Location: Arpaise
(41.0333°N, 14.7333°E)
Time: 01:44:23
(UTC+00:00)

Helios 1B rocket - Pass Details

Date: 05 July 2020
Orbit: 574 x 584 km, 98.1° (Epoch: 11 August)

Event Time Altitude Azimuth Distance (km) Brightness Sun altitude
Rises 23:50:15 0° 8° (N) 2,810 7.3 -25.5°
Reaches altitude 10° 23:52:27 10° 4° (N) 1,905 6.1 -25.4°
Enters shadow 23:56:02 52° 314° (NW) 722 3.0 -25.2°
